Location: Arpaise
(41.0333°N, 14.7333°E)
Time: 07:06:30
(UTC+00:00)

OAO 3 Rocket - Pass Details

Date: 05 July 2020
Orbit: 629 x 683 km, 35.0° (Epoch: 05 August)

Event Time Altitude Azimuth Distance (km) Brightness Sun altitude
Rises 19:35:27 0° 261° (W) 2,994 7.2 -9.8°
Reaches altitude 10° 19:37:56 10° 254° (WSW) 2,089 6.2 -10.1°
Maximum altitude 19:42:29 40° 186° (S) 995 3.8 -10.7°
Enters shadow 19:46:10 15° 122° (ESE) 1,792 4.8 -11.2°
